FIN8JD LEMG-EFHK

Flight info

Callsign FIN8JD
Flight time N/A
Altitude 32000
Route BLN N865 VTB N867 DGO L176 LUSEM DCT LULUT/N0450F340 DCT ADABI DCT BOKNO DCT DIBES DCT VIQAQ DCT TSU UN858 OQQAL DCT RANUX/N0447F330 DCT VALEK DCT LIPNI UN858 LIMGO DCT MASEK/N0446F350 DCT FEDZA DCT MAG DCT LOLPA DCT BINKA N746 DEMUR DCT GORPI DCT ANFEV DCT DIPEB DCT NINTA DCT ADAXA DCT LATEG DCT LONSA Q33 INTOR
Aircraft A321/M-SDE1E2E3FGHIJ1M1RWXYZ/LB1

Departure

Time N/A
Airport Málaga-Costa del Sol Airport (LEMG)

Arrival

Time 2026-04-24 13:46
Airport Helsinki Vantaa Airport (EFHK)
Time Latitude Longitude Altitude Speed Heading
2026-04-24 13:02 56.65291 19.63059 37003 ft 451 kts 44°
2026-04-24 13:02 56.69382 19.71646 37001 ft 451 kts 44°
2026-04-24 13:03 56.73489 19.80311 37002 ft 451 kts 44°
2026-04-24 13:03 56.77593 19.88994 37004 ft 451 kts 44°
2026-04-24 13:04 56.81666 19.97626 36998 ft 451 kts 44°
2026-04-24 13:04 56.85763 20.06346 36994 ft 451 kts 44°
2026-04-24 13:05 56.89842 20.15065 36997 ft 451 kts 44°
2026-04-24 13:05 56.93898 20.23764 36985 ft 451 kts 45°
2026-04-24 13:06 56.97975 20.32548 36990 ft 451 kts 45°
2026-04-24 13:06 57.02041 20.41330 36989 ft 452 kts 45°
2026-04-24 13:07 57.06084 20.50094 36985 ft 452 kts 45°
2026-04-24 13:07 57.10147 20.58935 36982 ft 452 kts 45°
2026-04-24 13:08 57.14204 20.67809 36984 ft 452 kts 45°
2026-04-24 13:08 57.18257 20.76703 36976 ft 453 kts 45°
2026-04-24 13:09 57.24301 20.90031 36973 ft 452 kts 45°
2026-04-24 13:09 57.28342 20.98980 36966 ft 452 kts 46°
2026-04-24 13:10 57.32347 21.07877 36961 ft 452 kts 46°
2026-04-24 13:10 57.36365 21.16834 36950 ft 452 kts 46°
2026-04-24 13:11 57.40381 21.25828 36951 ft 452 kts 46°
2026-04-24 13:11 57.44371 21.34780 36948 ft 452 kts 46°
2026-04-24 13:12 57.48370 21.43816 36953 ft 452 kts 46°
2026-04-24 13:12 57.52368 21.52882 36951 ft 452 kts 46°
2026-04-24 13:13 57.56364 21.61961 36953 ft 452 kts 46°
2026-04-24 13:13 57.60341 21.71042 36951 ft 452 kts 47°
2026-04-24 13:14 57.64304 21.80123 36951 ft 452 kts 47°
2026-04-24 13:14 57.68277 21.89263 36945 ft 452 kts 47°
2026-04-24 13:15 57.72240 21.98415 36946 ft 452 kts 47°
2026-04-24 13:15 57.76187 22.07490 36939 ft 450 kts 43°
2026-04-24 13:16 57.80924 22.14915 36936 ft 442 kts 30°
2026-04-24 13:16 57.86024 22.21345 36932 ft 442 kts 30°
2026-04-24 13:17 57.91130 22.27838 36920 ft 442 kts 30°
2026-04-24 13:17 57.96195 22.34300 36918 ft 441 kts 30°
2026-04-24 13:18 58.01281 22.40808 36906 ft 441 kts 30°
2026-04-24 13:18 58.06360 22.47348 36895 ft 441 kts 30°
2026-04-24 13:19 58.11395 22.53865 36894 ft 440 kts 30°
2026-04-24 13:19 58.16453 22.60425 36897 ft 440 kts 30°
2026-04-24 13:20 58.21499 22.66980 36896 ft 439 kts 30°
2026-04-24 13:20 58.26534 22.73546 36899 ft 439 kts 30°
2026-04-24 13:21 58.31563 22.80127 36900 ft 438 kts 30°
2026-04-24 13:21 58.36577 22.86715 36904 ft 437 kts 30°
2026-04-24 13:22 58.41543 22.93258 36900 ft 436 kts 30°
2026-04-24 13:22 58.46543 22.99871 36899 ft 436 kts 30°
2026-04-24 13:23 58.51499 23.06453 36891 ft 435 kts 30°
2026-04-24 13:23 58.56474 23.13080 36893 ft 434 kts 30°
2026-04-24 13:24 58.61431 23.19710 36889 ft 434 kts 30°
2026-04-24 13:24 58.66378 23.26342 36884 ft 433 kts 30°
2026-04-24 13:25 58.71291 23.32937 36881 ft 433 kts 30°
2026-04-24 13:25 58.76226 23.39607 36881 ft 432 kts 31°
2026-04-24 13:26 58.81153 23.46301 36877 ft 432 kts 31°
2026-04-24 13:26 58.86064 23.52995 36878 ft 432 kts 31°
2026-04-24 13:27 58.88524 23.56348 36603 ft 433 kts 31°
2026-04-24 13:27 58.90969 23.59681 35833 ft 437 kts 31°
2026-04-24 13:27 58.93458 23.63083 35250 ft 437 kts 30°
2026-04-24 13:27 58.95947 23.66493 34605 ft 438 kts 30°
2026-04-24 13:28 58.98434 23.69907 34024 ft 438 kts 30°
2026-04-24 13:28 59.00914 23.73324 33452 ft 436 kts 30°
2026-04-24 13:28 59.03384 23.76738 32955 ft 432 kts 30°
2026-04-24 13:28 59.05800 23.80089 32469 ft 429 kts 30°
2026-04-24 13:29 59.08198 23.83518 31963 ft 428 kts 34°
2026-04-24 13:29 59.10396 23.87467 31454 ft 428 kts 38°
2026-04-24 13:29 59.12545 23.91469 30931 ft 426 kts 38°
2026-04-24 13:29 59.14685 23.95454 30422 ft 424 kts 38°
2026-04-24 13:30 59.16808 23.99404 29907 ft 421 kts 38°
2026-04-24 13:30 59.18920 24.03334 29349 ft 418 kts 38°
2026-04-24 13:30 59.20994 24.07200 28862 ft 414 kts 37°
2026-04-24 13:30 59.23068 24.11077 28364 ft 410 kts 37°
2026-04-24 13:31 59.25124 24.14934 27887 ft 406 kts 37°
2026-04-24 13:31 59.27130 24.18706 27413 ft 402 kts 37°
2026-04-24 13:31 59.29145 24.22498 26948 ft 398 kts 37°
2026-04-24 13:31 59.31130 24.26243 26494 ft 395 kts 37°
2026-04-24 13:32 59.33102 24.29964 26052 ft 391 kts 37°
2026-04-24 13:32 59.35054 24.33650 25610 ft 389 kts 37°
2026-04-24 13:32 59.36972 24.37280 25181 ft 386 kts 37°
2026-04-24 13:32 59.38903 24.40947 24756 ft 384 kts 37°
2026-04-24 13:33 59.40822 24.44601 24340 ft 382 kts 37°
2026-04-24 13:33 59.42728 24.48231 23875 ft 381 kts 36°
2026-04-24 13:33 59.44634 24.51868 23443 ft 380 kts 36°
2026-04-24 13:33 59.46503 24.55440 22943 ft 379 kts 37°
2026-04-24 13:34 59.48387 24.59048 22494 ft 376 kts 37°
2026-04-24 13:34 59.50255 24.62633 22038 ft 373 kts 37°
2026-04-24 13:34 59.52116 24.66204 21558 ft 370 kts 36°
2026-04-24 13:34 59.54187 24.69173 20641 ft 365 kts 19°
2026-04-24 13:35 59.56545 24.70650 20304 ft 347 kts
2026-04-24 13:35 59.58920 24.71128 19896 ft 341 kts
2026-04-24 13:35 59.61250 24.71521 19449 ft 338 kts 360°
2026-04-24 13:35 59.63593 24.71898 19000 ft 335 kts 360°
2026-04-24 13:36 59.65908 24.72258 18547 ft 332 kts 360°
2026-04-24 13:36 59.68207 24.72611 18098 ft 329 kts 360°
2026-04-24 13:36 59.70465 24.72955 17589 ft 327 kts 360°
2026-04-24 13:36 59.72725 24.73306 17070 ft 324 kts 360°
2026-04-24 13:37 59.74966 24.73660 16556 ft 322 kts
2026-04-24 13:37 59.77193 24.74016 16048 ft 320 kts
2026-04-24 13:37 59.79406 24.74372 15547 ft 318 kts
2026-04-24 13:37 59.81605 24.74727 15053 ft 316 kts
2026-04-24 13:38 59.83795 24.75078 14561 ft 314 kts
2026-04-24 13:38 59.85971 24.75424 14073 ft 312 kts
2026-04-24 13:38 59.88106 24.75759 13593 ft 310 kts
2026-04-24 13:38 59.90254 24.76097 13065 ft 308 kts
2026-04-24 13:39 59.92397 24.76434 12507 ft 306 kts
2026-04-24 13:39 59.93802 24.76658 12165 ft 305 kts
2026-04-24 13:39 59.95918 24.76998 11636 ft 304 kts
2026-04-24 13:39 59.98673 24.76629 10941 ft 298 kts 346°
2026-04-24 13:40 60.00045 24.76040 10555 ft 299 kts 346°
2026-04-24 13:40 60.02057 24.75162 10018 ft 299 kts 346°
2026-04-24 13:40 60.04094 24.74266 9458 ft 299 kts 346°
2026-04-24 13:40 60.06135 24.73370 8851 ft 300 kts 347°
2026-04-24 13:41 60.08165 24.72480 8246 ft 296 kts 347°
2026-04-24 13:41 60.10127 24.71617 7658 ft 280 kts 347°
2026-04-24 13:41 60.11990 24.70793 7082 ft 268 kts 346°
2026-04-24 13:41 60.13752 24.70011 6526 ft 258 kts 346°
2026-04-24 13:42 60.15480 24.69242 5958 ft 250 kts 346°
2026-04-24 13:42 60.17165 24.68494 5363 ft 244 kts 346°
2026-04-24 13:42 60.18817 24.67767 4784 ft 240 kts 348°
2026-04-24 13:42 60.20457 24.67871 4197 ft 239 kts 16°
2026-04-24 13:43 60.21842 24.69674 3611 ft 240 kts 44°
2026-04-24 13:43 60.22945 24.72151 3023 ft 239 kts 44°
2026-04-24 13:43 60.24062 24.74582 2411 ft 231 kts 43°
2026-04-24 13:43 60.25119 24.76884 2025 ft 214 kts 42°
2026-04-24 13:44 60.26074 24.78970 1729 ft 192 kts 42°
2026-04-24 13:44 60.26945 24.80871 1484 ft 178 kts 42°
2026-04-24 13:44 60.27727 24.82586 1215 ft 156 kts 43°
2026-04-24 13:44 60.28445 24.84151 990 ft 146 kts 41°
2026-04-24 13:45 60.29128 24.85643 792 ft 144 kts 41°
2026-04-24 13:45 60.29803 24.87118 602 ft 142 kts 40°
2026-04-24 13:45 60.30461 24.88560 422 ft 140 kts 41°
2026-04-24 13:45 60.31123 24.90013 237 ft 141 kts 41°
2026-04-24 13:46 60.31766 24.91430 150 ft 124 kts 40°
2026-04-24 13:46 60.32281 24.92550 169 ft 95 kts 46°
2026-04-24 13:46 60.32687 24.93427 180 ft 77 kts 48°
2026-04-24 13:46 60.32971 24.94073 191 ft 35 kts 48°
2026-04-24 13:47 60.33088 24.94335 197 ft 22 kts 49°
2026-04-24 13:47 60.33120 24.94614 186 ft 23 kts 93°
2026-04-24 13:47 60.33112 24.94972 178 ft 27 kts 92°
2026-04-24 13:47 60.33165 24.95297 179 ft 22 kts 41°
2026-04-24 13:48 60.33199 24.95533 182 ft 18 kts 122°
2026-04-24 13:48 60.33100 24.95725 180 ft 20 kts 138°
2026-04-24 13:48 60.32981 24.95882 179 ft 22 kts 151°
2026-04-24 13:48 60.32838 24.96045 174 ft 25 kts 151°
2026-04-24 13:49 60.32682 24.96227 172 ft 26 kts 149°
2026-04-24 13:49 60.32521 24.96409 174 ft 26 kts 151°
2026-04-24 13:49 60.32416 24.96538 175 ft 0 kts 148°
2026-04-24 13:49 60.32395 24.96564 175 ft 12 kts 149°
2026-04-24 13:50 60.32290 24.96682 167 ft 21 kts 151°
2026-04-24 13:50 60.32159 24.96832 166 ft 22 kts 150°
2026-04-24 13:50 60.32067 24.96935 166 ft 11 kts 148°
2026-04-24 13:50 60.32021 24.96954 166 ft 1 kts 195°
2026-04-24 13:51 60.31992 24.96920 167 ft 7 kts 219°
2026-04-24 13:51 60.31980 24.96902 166 ft 1 kts 218°
2026-04-24 13:51 60.31977 24.96898 166 ft 0 kts 218°